Toluca Jose Maria, Mexico

4:18 PM CDT on May 23, 2018 (GMT -0500)
Lic Adolfo Lopez Mateos International

Weather History for MMTO - March, 2014

Change the Weather History Date:

Friday, March 28, 2014

  Actual Average Record
Temperature  
Mean Temperature 57 °F -  
Max Temperature 77 °F 72 °F 78 °F (1998)
Min Temperature 37 °F 38 °F 28 °F (2009)
Degree Days  
Heating Degree Days 8    
Growing Degree Days 7 (Base 50)    
Moisture  
Dew Point 31 °F    
Average Humidity 43    
Maximum Humidity 81    
Minimum Humidity 10    
Precipitation  
Precipitation 0.00 in - - ()
Sea Level Pressure  
Sea Level Pressure 30.36 in    
Wind  
Wind Speed 4 mph ()    
Max Wind Speed 16 mph    
Max Gust Speed -    
Visibility 6.2 miles    
Events      
Averages and records for this station are not official NWS values.
T = Trace of Precipitation, MM = Missing Value Source: Averaged Metar Reports

Daily Weather History Graph

Daily Weather History Graph

Search for Another Location

Airport or City:

Astronomy

Mar. 28, 2014 Rise Set
Actual Time 6:35 AM CST 6:51 PM CST
Civil Twilight 6:13 AM CST 7:13 PM CST
Nautical Twilight 5:47 AM CST 7:38 PM CST
Astronomical Twilight 5:22 AM CST 8:04 PM CST
Moon 4:49 AM CST (3/28) 5:03 PM CST (3/28)
Length of Visible Light 12h 59m
Length of Day
12h 15m
Waning Crescent, 6% of the Moon is Illuminated
Mar 28
Waning Crescent
Mar 30
New
Apr 7
First Quarter
Apr 15
Full
Apr 22
Last Quarter

Hourly Weather History & Observations

Time (CST) Temp. Windchill Dew Point Humidity Pressure Visibility Wind Dir Wind Speed Gust Speed Precip Events Conditions
12:44 AM 44.6 °F - 33.8 °F 66% 30.39 in 6.0 mi Calm Calm - N/A   Clear
1:45 AM 44.6 °F - 33.8 °F 66% 30.38 in 6.0 mi Calm Calm - N/A   Clear
2:43 AM 41.0 °F - 32.0 °F 70% 30.37 in 5.0 mi Calm Calm - N/A   Clear
3:45 AM 41.0 °F - 32.0 °F 70% 30.36 in 5.0 mi Calm Calm - N/A   Clear
4:43 AM 39.2 °F - 32.0 °F 75% 30.35 in 4.0 mi Calm Calm - N/A   Clear
5:43 AM 39.2 °F 35.9 °F 32.0 °F 75% 30.36 in 4.0 mi SSE 4.6 mph - N/A   Clear
6:43 AM 37.4 °F 34.9 °F 32.0 °F 81% 30.37 in 5.0 mi North 3.5 mph - N/A   Clear
7:45 AM 44.6 °F - 35.6 °F 71% 30.39 in 5.0 mi East 2.3 mph - N/A   Clear
8:47 AM 53.6 °F - 37.4 °F 54% 30.41 in 6.0 mi ESE 4.6 mph - N/A   Clear
9:45 AM 60.8 °F - 35.6 °F 39% 30.41 in 7.0 mi ENE 3.5 mph - N/A   Clear
10:45 AM 68.0 °F - 33.8 °F 28% 30.40 in 6.0 mi SSW 8.1 mph - N/A   Partly Cloudy
11:46 AM 71.6 °F - 26.6 °F 19% 30.39 in 6.0 mi SSW 4.6 mph - N/A   Partly Cloudy
12:48 PM 73.4 °F - 19.4 °F 13% 30.36 in 7.0 mi SSE 10.4 mph - N/A   Scattered Clouds
1:47 PM 77.0 °F - 15.8 °F 10% 30.32 in 7.0 mi SSE 6.9 mph - N/A   Scattered Clouds
2:43 PM 68.0 °F - 17.6 °F 15% 30.30 in 7.0 mi SW 3.5 mph - N/A   Scattered Clouds
3:42 PM 75.2 °F - 26.6 °F 17% 30.28 in 7.0 mi SSW 10.4 mph - N/A   Scattered Clouds
4:41 PM 73.4 °F - 32.0 °F 22% 30.28 in 7.0 mi South 16.1 mph - N/A   Scattered Clouds
5:44 PM 71.6 °F - 33.8 °F 25% 30.29 in 7.0 mi SSE 11.5 mph - N/A   Scattered Clouds
6:44 PM 68.0 °F - 33.8 °F 28% 30.32 in 7.0 mi West 10.4 mph - N/A   Scattered Clouds
7:41 PM 62.6 °F - 35.6 °F 37% 30.36 in 7.0 mi NNW 8.1 mph - N/A   Scattered Clouds
8:48 PM 60.8 °F - 33.8 °F 36% 30.39 in 7.0 mi West 9.2 mph - N/A   Partly Cloudy
9:42 PM 59.0 °F - 33.8 °F 39% 30.41 in 7.0 mi NNW 9.2 mph - N/A   Partly Cloudy
10:46 PM 59.0 °F - 33.8 °F 39% 30.41 in 7.0 mi NNW 11.5 mph - N/A   Partly Cloudy
11:45 PM 57.2 °F - 30.2 °F 36% 30.43 in 7.0 mi WNW 4.6 mph - N/A   Scattered Clouds